Snowfall_Accumulation
0.0 0.0 0.0 0.0 0.0 0.0 0.0 0.0 0.0 0.0 0.0 0.0 0.0 0.0 0.0 0.0 0.0 0.0 0.0 0.0 0.0 7.2 2.1 0.0 0.0 0.0 0.7 0.6 2.8 0.8 5.6 6.8 8.2 12.4 9.3 5.0 3.7 0.7 0.0 0.0 0.0 0.0 0.4 0.7 2.9 6.7 3.2 0.0 0.0 0.0 0.0 0.0 0.0 0.0
0.0 0.0 0.0 0.0 0.0 0.0 0.0 0.0 0.0 0.0 0.0 0.0 0.0 0.0 0.0 0.0 0.0 0.0 0.0 0.0 0.0 2.3 5.8 0.0 0.0 0.0 0.0 0.0 0.3 2.7 3.6 1.3 2.3 6.8 7.1 5.2 5.6 3.6 1.4 0.7 0.0 0.1 0.0 0.0 0.0 0.3 0.0 0.0 0.0 0.0 0.0 0.0 0.0 0.0
0.0 0.0 0.0 0.0 0.0 0.0 0.0 0.0 0.0 0.0 0.0 0.0 0.0 0.0 0.0 0.0 0.0 0.0 0.0 0.0 0.0 12.8 8.3 1.3 0.8 0.0 0.0 0.0 0.0 6.0 3.6 0.0 2.1 0.0 6.2 7.1 9.6 4.8 3.6 1.2 0.0 0.1 0.0 0.0 0.0 0.0 0.0 0.0 0.0 0.0 0.0 0.0 0.0 0.0
0.0 0.0 0.0 0.0 0.0 0.0 0.0 0.0 0.0 0.0 0.0 0.0 0.0 0.0 0.0 0.0 0.0 0.0 0.0 0.0 0.0 10.7 15.8 2.4 0.0 0.0 0.0 0.0 0.0 0.0 0.0 0.0 0.1 2.1 11.8 11.1 9.1 1.5 1.1 0.4 0.2 0.1 0.0 0.1 0.1 0.0 0.0 0.0 0.0 0.0 0.0 0.0 0.0 0.0
0.0 0.0 0.0 0.0 0.0 0.0 0.0 0.0 0.0 0.0 0.0 0.0 0.0 0.0 0.0 0.0 0.0 0.0 0.0 0.0 0.0 0.6 12.9 2.4 0.8 0.4 0.0 0.0 0.0 0.0 0.2 1.6 9.0 13.0 15.4 9.7 2.6 3.2 2.9 2.3 1.2 0.0 0.0 0.0 0.0 0.0 0.0 0.0 0.0 0.0 0.0 0.0 0.0 0.0
0.0 0.0 0.0 0.0 0.0 0.0 0.0 0.0 0.0 0.0 0.0 0.0 0.0 0.0 0.0 0.0 0.0 0.0 3.8 0.0 0.0 0.0 21.8 13.1 0.9 0.0 0.0 0.0 0.3 1.3 0.8 4.7 9.3 12.4 11.5 4.6 1.0 1.6 6.9 1.8 0.0 0.0 0.0 0.0 0.0 0.0 0.0 0.0 0.0 0.0 0.0 0.0 0.0 0.0
0.0 0.0 0.0 0.0 0.0 0.0 0.0 0.0 0.0 0.0 0.0 0.0 0.0 0.0 0.0 0.0 0.0 10.7 2.6 0.0 0.0 0.0 22.0 17.3 7.4 2.0 0.3 0.1 0.9 1.2 1.5 2.6 8.4 13.1 9.1 4.4 2.4 6.2 11.1 2.4 0.0 0.0 0.0 0.0 0.0 0.0 0.0 0.0 0.0 0.0 0.0 0.0 0.0 0.0
0.0 0.0 0.0 0.0 0.0 0.0 0.0 0.0 0.0 0.0 0.0 0.0 0.0 0.0 0.0 0.0 0.0 4.4 2.0 0.0 0.0 3.6 22.7 25.8 10.3 4.0 1.1 4.6 3.9 1.0 5.0 7.9 8.7 8.0 3.5 1.1 1.4 7.0 7.0 0.0 0.0 0.0 0.0 0.0 0.0 0.0 0.0 0.0 0.0 0.0 0.0 0.0 0.0 0.0
0.0 0.0 0.0 0.0 0.0 0.0 0.0 0.0 0.0 0.0 0.0 0.0 0.0 0.0 0.0 3.3 6.5 5.8 0.0 0.0 0.0 5.8 21.2 17.2 7.8 6.2 0.7 2.7 3.2 4.3 4.8 13.3 5.4 6.4 1.4 1.0 3.2 5.4 0.0 0.1 0.1 0.0 0.2 0.2 0.2 0.0 0.0 0.0 0.0 0.0 0.0 0.0 0.0 0.0
0.0 0.0 0.0 0.0 0.0 0.0 0.0 0.0 0.0 0.0 0.0 0.0 0.0 12.1 27.4 8.6 0.0 0.0 2.2 11.9 17.2 18.7 17.1 9.4 5.5 6.6 3.4 5.0 4.9 4.9 6.8 6.4 7.6 1.0 0.1 5.5 0.3 0.0 0.1 0.9 1.5 1.7 1.0 1.2 2.0 3.8 1.6 1.0 0.0 0.0 0.0 0.0 0.0 0.0
0.0 0.0 0.0 0.0 0.0 0.0 0.0 0.0 0.0 0.0 0.0 2.1 23.2 21.3 6.3 1.0 1.6 7.8 34.7 32.1 22.1 15.1 5.9 4.8 5.0 4.4 0.9 7.0 6.2 3.9 10.9 7.4 8.6 5.4 3.2 4.2 3.4 5.6 3.5 3.1 3.4 2.4 2.0 1.6 1.5 1.5 1.2 3.2 3.0 1.4 0.7 0.2 0.0 0.0
0.0 0.0 0.0 0.0 0.0 0.0 0.0 0.0 0.0 0.2 0.6 0.2 0.0 0.4 4.3 12.3 37.3 37.3 26.0 13.2 4.3 2.5 2.2 5.9 4.9 2.4 4.0 2.1 8.3 6.9 8.2 7.5 6.8 8.2 11.1 5.2 4.9 1.5 3.5 4.6 3.2 1.7 2.1 2.0 1.5 2.3 1.6 1.2 1.7 3.1 2.1 1.9 1.6 1.7
0.0 0.0 0.0 0.0 0.0 0.0 0.0 0.0 0.0 0.0 0.0 0.8 17.8 36.8 37.1 36.5 32.5 20.5 8.4 6.3 2.7 3.8 4.5 6.0 5.5 5.6 7.6 9.4 11.5 7.4 8.9 4.0 1.3 6.5 5.7 5.1 1.9 1.7 2.4 2.9 2.1 3.4 5.4 4.0 2.5 2.3 2.8 2.6 1.8 3.3 3.5 1.2 1.3 1.2
0.0 0.0 0.0 0.0 0.0 0.0 0.0 0.0 0.0 0.7 2.3 12.7 34.7 33.7 25.8 23.4 8.8 5.0 3.5 3.1 1.7 1.2 1.2 2.6 4.5 7.5 8.1 12.7 10.7 10.2 3.6 3.6 6.7 6.0 4.7 1.5 1.4 1.5 1.3 1.0 1.6 1.5 3.3 3.9 4.6 3.7 3.7 3.9 3.1 2.8 2.7 1.8 1.5 0.7
0.0 0.0 0.0 0.0 0.0 0.0 0.0 0.0 0.0 0.0 3.0 28.8 26.7 19.9 11.6 5.1 4.2 4.8 4.1 2.2 1.7 2.3 4.1 5.2 7.3 5.6 8.1 14.9 9.3 4.4 6.1 7.0 7.1 5.1 2.4 1.0 0.6 0.6 0.4 0.4 0.8 1.4 2.8 3.1 2.3 1.8 3.3 3.1 3.8 2.9 1.8 2.0 1.2 1.0
0.0 0.0 0.0 0.0 0.0 0.0 0.0 0.0 0.0 0.6 20.2 26.7 19.8 8.5 1.8 1.6 2.7 2.6 3.0 3.5 2.8 2.8 4.3 6.3 10.6 10.6 8.1 9.3 7.7 4.7 5.8 4.7 4.4 2.1 0.3 0.4 0.4 0.1 0.4 0.2 0.7 2.1 2.4 3.8 5.0 2.6 2.2 4.0 3.8 2.4 1.4 1.7 1.4 0.8
0.0 2.4 0.0 0.0 0.0 0.0 0.0 0.1 0.8 29.5 27.4 23.5 10.7 2.7 2.2 2.3 4.0 4.1 4.8 5.6 5.2 7.0 10.5 11.8 12.3 5.9 7.1 6.4 4.8 2.8 2.9 1.9 1.6 0.8 0.5 0.6 1.6 1.5 1.3 0.6 0.7 1.5 1.4 2.9 5.5 3.5 3.7 5.0 6.0 5.0 3.1 1.7 1.4 1.9
0.6 0.0 0.0 0.0 0.0 0.0 4.1 7.6 18.3 33.6 26.1 9.5 3.7 2.4 2.0 3.1 3.8 4.7 6.1 6.7 10.5 12.9 14.2 16.6 9.8 8.2 4.5 3.0 1.5 1.7 1.5 1.5 1.7 2.7 2.9 2.4 2.1 1.7 1.7 1.5 1.1 1.5 2.7 4.0 6.2 4.9 5.2 6.0 5.7 4.5 3.4 3.9 3.5 3.6
0.8 0.0 0.0 0.0 0.0 3.9 31.3 29.9 21.4 23.0 6.7 2.6 2.2 2.2 2.3 3.1 3.7 4.8 5.6 6.9 8.1 7.9 10.7 15.6 14.2 6.2 2.6 2.2 2.1 1.3 2.5 3.5 4.3 3.5 3.1 3.0 2.3 1.9 1.8 2.3 2.0 1.3 1.9 3.3 3.5 4.4 4.8 4.6 3.9 4.8 3.8 2.7 3.6 3.3
0.0 0.0 0.0 0.0 0.0 23.7 34.3 29.3 15.5 8.3 3.7 1.9 2.5 2.9 2.4 2.5 3.3 4.0 5.6 7.2 8.7 9.5 14.6 12.6 2.8 2.8 3.2 2.0 3.3 4.1 3.2 3.6 4.9 4.5 3.1 3.4 3.6 2.8 2.8 2.3 2.0 1.9 1.6 2.5 3.3 3.7 5.9 5.2 5.1 5.8 4.8 4.4 4.5 4.3
3.8 13.0 6.9 0.7 8.3 28.7 26.3 18.3 8.6 4.7 2.4 2.9 3.5 2.2 2.7 2.8 3.4 4.9 5.6 6.2 10.9 12.4 6.9 3.8 3.2 3.3 3.4 3.6 3.9 4.6 3.8 4.4 5.8 6.8 6.2 5.7 4.8 4.9 4.9 3.2 1.9 1.7 2.2 2.6 3.5 4.4 6.6 5.8 5.4 5.1 5.3 5.3 5.6 6.2
14.5 12.0 18.8 14.9 42.1 40.2 26.0 11.6 5.9 3.5 2.4 3.1 3.1 2.4 3.5 4.2 4.6 5.7 5.7 6.5 9.2 5.5 4.3 4.8 4.9 4.7 3.5 3.8 5.6 6.0 6.5 5.5 5.4 5.8 5.4 6.4 6.1 5.2 6.0 5.2 2.8 2.6 3.0 4.4 5.1 5.8 5.9 6.0 6.6 7.0 6.2 7.0 6.7 7.3
7.6 15.5 45.4 44.9 41.2 34.9 19.9 8.1 3.4 3.4 3.3 4.0 3.4 4.2 4.2 3.9 4.4 4.4 6.0 5.5 4.9 5.5 5.3 5.5 5.7 7.1 6.6 6.4 6.2 6.2 6.7 6.1 5.0 4.8 5.1 5.1 5.3 5.5 6.0 6.2 6.4 7.0 6.1 7.4 7.8 7.8 7.1 7.4 7.3 6.2 5.9 5.7 4.9 6.1
3.5 44.4 48.4 42.2 30.3 22.1 14.4 11.6 8.4 4.8 5.5 4.7 4.0 3.0 2.7 2.4 3.7 4.4 4.5 3.7 4.6 5.2 4.5 4.9 5.2 4.6 4.1 4.5 5.1 6.0 7.4 6.9 5.5 4.6 5.9 6.9 4.6 4.6 4.9 5.9 6.8 8.1 8.1 7.8 7.8 7.3 6.3 6.7 7.0 6.9 5.9 5.8 5.3 4.5
54.1 58.7 43.7 36.8 22.4 11.9 6.9 5.5 4.3 3.7 2.9 3.0 2.0 2.0 2.1 2.7 3.4 4.1 3.2 3.8 4.0 4.4 4.8 5.0 4.9 5.8 6.3 3.9 5.0 5.5 6.3 8.6 8.4 7.1 4.8 8.2 7.5 5.3 4.5 4.7 5.3 6.2 7.3 6.5 5.9 5.2 5.4 6.2 6.6 6.3 6.6 5.5 4.7 4.2
48.7 30.1 20.9 9.4 5.5 2.2 1.4 1.3 1.4 1.2 0.7 1.7 1.4 1.2 1.2 3.1 4.5 3.7 3.1 3.8 3.7 3.9 4.8 4.9 5.0 4.0 3.5 5.7 6.6 6.2 6.1 8.4 9.0 7.0 4.9 7.7 9.1 9.5 7.4 6.4 5.2 4.8 6.8 6.3 5.9 4.7 5.4 5.4 5.2 5.3 6.9 7.2 4.7 4.2
37.9 21.3 8.9 2.2 1.3 1.1 1.0 1.0 1.0 1.3 1.7 2.0 1.6 1.6 2.0 4.8 1.9 2.6 3.6 4.2 4.5 4.2 4.9 5.4 6.0 6.5 5.5 4.6 4.5 5.3 8.1 10.1 11.4 9.2 7.9 8.1 7.7 8.2 8.6 8.5 6.0 5.5 7.4 7.5 7.0 5.3 4.7 4.4 3.7 2.6 3.6 4.7 5.0 3.7
14.6 6.0 2.7 3.1 3.2 2.5 2.8 1.9 1.6 1.3 1.8 1.3 2.1 2.3 3.3 2.5 1.8 2.2 2.9 3.3 4.3 4.3 5.0 5.7 6.3 6.5 7.5 7.4 7.5 7.7 8.3 9.3 9.1 7.9 7.0 6.7 7.1 7.0 7.3 7.0 7.5 7.7 6.9 6.3 5.5 5.6 4.9 3.8 3.4 3.3 3.0 3.2 4.7 4.8
4.1 2.0 1.7 2.2 2.3 2.0 1.9 1.4 1.4 1.0 0.8 0.9 0.7 0.6 0.7 0.8 2.2 2.6 2.6 3.3 3.2 3.7 3.8 4.8 3.9 5.4 6.3 6.7 7.3 9.0 9.7 9.5 8.2 6.9 5.9 5.3 4.4 4.3 6.1 6.9 7.1 7.4 7.4 8.1 7.8 6.5 5.0 4.3 5.0 5.0 4.7 4.7 5.7 6.1
0.7 0.5 0.7 0.8 1.5 1.6 1.2 1.7 1.8 2.1 2.4 2.2 1.0 0.8 0.8 1.4 2.8 3.1 2.7 2.3 2.4 3.0 3.6 4.0 4.2 4.4 4.7 4.8 5.2 5.7 7.0 7.5 8.9 8.0 6.2 5.2 5.7 7.5 8.1 7.6 7.9 8.2 7.5 6.4 8.2 10.5 8.5 7.8 8.3 7.4 6.3 5.8 5.3 5.0
0.0 0.0 0.1 0.1 0.3 0.7 1.1 0.6 0.8 0.8 1.6 1.6 1.7 1.8 2.0 2.3 2.6 3.1 2.3 2.6 2.9 3.0 3.1 2.8 2.8 4.0 4.8 5.0 5.9 5.5 4.6 5.2 6.4 6.3 6.5 6.6 5.8 6.3 6.5 7.8 7.8 8.0 7.8 7.2 6.3 6.4 6.2 5.7 5.2 5.0 4.9 4.9 4.8 4.2
0.0 0.1 0.0 0.3 0.5 1.1 1.0 0.5 0.2 0.0 0.1 0.3 1.2 1.5 2.0 1.9 1.6 1.3 1.3 1.1 1.1 1.4 3.0 3.7 3.8 4.0 5.9 7.3 7.9 8.6 10.1 8.5 6.1 6.6 6.3 5.3 5.0 4.9 6.1 6.4 7.6 7.6 7.4 7.2 6.6 6.6 5.9 5.6 6.3 5.8 5.7 6.0 5.7 4.9
1.3 0.7 0.5 0.3 1.4 1.3 1.1 0.6 0.7 0.5 0.5 0.3 0.4 0.9 1.1 0.7 0.7 0.6 0.8 1.7 3.1 3.4 3.3 4.3 5.1 6.3 7.2 8.1 8.2 8.2 7.5 6.3 7.6 7.6 7.6 7.0 6.0 5.4 5.7 6.0 7.1 6.7 5.9 6.0 6.7 6.9 6.9 6.3 6.3 6.0 5.6 5.6 5.6 5.1